Location: Dittelbrunn
(50.0738°N, 10.2196°E)
Time: 02:35:18
(UTC+00:00)

Cosmos 1626 - Pass Details

Date: 18 September 2020
Orbit: 490 x 495 km, 82.5° (Epoch: 19 October)

Event Time Altitude Azimuth Distance (km) Brightness Sun altitude
Rises 18:38:08 0° 5° (N) 2,590 5.9 -12.3°
Reaches altitude 10° 18:41:06 10° 31° (NNE) 1,700 4.7 -12.8°
Maximum altitude 18:43:10 14° 65° (ENE) 1,451 4.0 -13.1°
Enters shadow 18:43:14 14° 66° (ENE) 1,451 4.0 -13.1°
